[[{"header":{"parameterUnit":"m.s-1","parameterCategory":1,"la1":30.2991,"la2":30.254,"lo1":-89.0895,"lo2":-89.0444,"dy":0.0017,"dx":0.0017,"nx":28,"ny":28,"refTime":"2025-04-05T03:00:00:Z","depth":0,"parameterNumber":2,"parameterNumberName":"U-component_of_WINDS"},"data":[0,0,0,0,0,0,0,0,0,0,0,0,0,0,0,0,0,0,0,0,0,0,0,0,0,0,0,0,0,0,0,0,0,0,0,0,0,0,0,0,0,0,0,0,0,0,0,0,0,0,0,0,0,0,0,0,0,0,-4.1909,-4.191,0,-4.2064,-4.2066,-4.2068,-4.2112,-4.2111,-4.2111,-4.211,-4.227,-4.2275,-4.228,0,0,0,0,0,0,0,0,0,0,0,0,0,-4.1651,-4.1655,-4.1908,-4.191,-4.1912,-4.2064,-4.2066,-4.2068,-4.2112,-4.2111,-4.211,-4.2109,-4.2268,-4.2274,-4.228,0,0,0,0,0,0,0,0,0,0,0,0,0,-4.178,-4.1657,-4.1908,-4.1953,-4.1958,-4.2064,-4.2066,-4.2069,-4.2113,-4.2111,-4.211,-4.2109,-4.2266,-4.2274,-4.2281,-4.2353,0,0,-4.2304,-4.2307,0,0,0,0,0,0,0,0,-4.1773,-4.179,-4.1944,-4.195,-4.1956,-4.2068,-4.2034,-4.2164,-4.2113,-4.2054,-4.211,-4.2108,-4.2204,-4.2216,-4.2248,-4.2361,-4.2368,-4.2305,-4.2309,-4.2313,-4.2315,0,0,0,0,0,0,0,-4.1764,-4.1783,-4.197,-4.1946,-4.1954,-4.1965,-4.1982,-4.2059,-4.2134,-4.2059,-4.2063,-4.208,-4.2207,-4.2241,-4.2252,-4.237,-4.2305,-4.2311,-4.2316,-4.2319,-4.2551,-4.2552,0,0,0,0,0,0,-4.1747,-4.1775,-4.1965,-4.1975,-4.1859,-4.1971,-4.199,-4.2033,-4.2133,-4.2147,-4.2081,-4.2082,-4.2229,-4.2243,-4.2258,-4.2349,-4.2313,-4.232,-4.2324,-4.2549,-4.2551,-4.2553,0,0,0,0,0,0,-4.1741,-4.1764,-4.1959,-4.1876,-4.1902,-4.1977,-4.2025,-4.2037,-4.2071,-4.215,-4.2164,-4.2102,-4.2228,-4.2247,-4.233,-4.2355,-4.2323,-4.233,-4.2547,-4.255,-4.2552,-4.2532,0,0,0,0,0,0,-4.1734,-4.1761,-4.1789,-4.1876,-4.1906,-4.2027,-4.2026,-4.2041,-4.2084,-4.2086,-4.2174,-4.2187,-4.2229,-4.2318,-4.2337,-4.2365,-4.2336,-4.2545,-4.2549,-4.2551,-4.2531,-4.2533,-4.2536,0,0,0,0,0,-4.1724,-4.1777,-4.179,-4.1813,-4.1942,-4.2028,-4.2045,-4.2092,-4.2086,-4.2115,-4.2166,-4.2184,-4.235,-4.2326,-4.2348,-4.2379,-4.2544,-4.2548,-4.2551,-4.2529,-4.2533,-4.2536,0,0,0,0,0,0,-4.169,-4.1789,-4.1805,-4.1887,-4.1949,-4.2036,-4.2073,-4.2094,-4.2159,-4.2158,-4.2214,-4.2234,-4.2312,-4.2354,-4.2325,-4.2455,-4.2448,-4.2456,-4.2424,-4.2427,-4.243,-4.2417,-4.2342,0,0,0,0,0,-4.1693,-4.1754,-4.1837,-4.1902,-4.1932,-4.1997,-4.2037,-4.2067,-4.2134,-4.216,-4.2217,-4.2281,-4.2348,-4.239,-4.2456,-4.2538,-4.2558,-4.257,-4.2573,-4.2574,-4.258,-4.2627,-4.2633,-4.2565,-4.2565,-4.2565,0,0,-4.1698,-4.1759,-4.1794,-4.1897,-4.1948,-4.2011,-4.2019,-4.2085,-4.2131,-4.217,-4.2251,-4.2295,-4.237,-4.2452,-4.2492,-4.249,-4.2604,-4.2579,-4.258,-4.2585,-4.2631,-4.2637,-4.2643,-4.2567,-4.2567,-4.2567,0,0,-4.1738,-4.1791,-4.1851,-4.1902,-4.198,-4.2024,-4.2038,-4.2122,-4.2153,-4.2235,-4.2265,-4.2323,-4.2436,-4.2489,-4.253,-4.2592,-4.2611,-4.2613,-4.2625,-4.267,-4.2675,-4.268,-4.2701,-4.2709,-4.2618,-4.2618,-4.2618,0,-4.1734,-4.1829,-4.1879,-4.1943,-4.1987,-4.2026,-4.2087,-4.2135,-4.223,-4.226,-4.2258,-4.2401,-4.2455,-4.255,-4.2565,-4.2598,-4.2616,-4.2601,-4.267,-4.2676,-4.2681,-4.2702,-4.271,-4.2618,-4.2618,-4.2618,-4.2618,0,-4.182,-4.1885,-4.1924,-4.2015,-4.2064,-4.2127,-4.2187,-4.223,-4.2258,-4.2301,-4.2385,-4.2451,-4.253,-4.2556,-4.2583,-4.2655,-4.2652,-4.2659,-4.2653,-4.2686,-4.2707,-4.2715,-4.2617,-4.2617,-4.2617,-4.2618,0,0,-4.1841,-4.196,-4.1973,-4.2015,-4.2105,-4.2157,-4.2222,-4.23,-4.2336,-4.2401,-4.2457,-4.2553,-4.2561,-4.2608,-4.2642,-4.2681,-4.2726,-4.2684,-4.2687,-4.2688,-4.2808,-4.2801,-4.2809,-4.274,-4.2742,-4.2743,-4.2802,0,-4.1892,-4.2007,-4.2055,-4.2149,-4.221,-4.2249,-4.2305,-4.2367,-4.241,-4.2469,-4.2517,-4.2584,-4.2589,-4.2618,-4.2659,-4.2711,-4.275,-4.2708,-4.2792,-4.2794,-4.2769,-4.282,-4.2812,-4.2864,-4.281,-4.2812,-4.2813,0,-4.1966,-4.2031,-4.2131,-4.2214,-4.2241,-4.2291,-4.2366,-4.2422,-4.2493,-4.2522,-4.2576,-4.2608,-4.2678,-4.2669,-4.2766,-4.2736,-4.2774,-4.2805,-4.2808,-4.2816,-4.2803,-4.2828,-4.2882,-4.2889,-4.2826,-4.2825,-4.2824,0,-4.1969,-4.2083,-4.2157,-4.2192,-4.2291,-4.2325,-4.2368,-4.2438,-4.2482,-4.2549,-4.2578,-4.2652,-4.2692,-4.275,-4.2801,-4.279,-4.2894,-4.2889,-4.2919,-4.2918,-4.2937,-4.2935,-4.2996,-4.2964,-4.2964,-4.2964,-4.2964,0,-4.202,-4.2079,-4.216,-4.2206,-4.2274,-4.2329,-4.2395,-4.2441,-4.2503,-4.2558,-4.2597,-4.2649,-4.2715,-4.2775,-4.2816,-4.289,-4.2909,-4.2934,-4.2944,-4.2929,-4.2926,-4.2953,-4.295,-4.2966,-4.2966,-4.2965,-4.2965,0,-4.2034,-4.2091,-4.2175,-4.2262,-4.2285,-4.2331,-4.2406,-4.2452,-4.2498,-4.2568,-4.2588,-4.266,-4.2733,-4.2791,-4.2886,-4.2914,-4.2992,-4.3003,-4.2967,-4.2972,-4.2998,-4.2994,-4.3078,-4.3091,-4.3051,-4.3052,-4.3052,0,-4.2062,-4.2108,-4.22,-4.224,-4.2283,-4.2346,-4.2392,-4.2449,-4.2494,-4.258,-4.2615,-4.2691,-4.2755,-4.287,-4.2931,-4.3004,-4.3017,-4.3042,-4.3028,-4.3013,-4.3016,-4.3012,-4.3017,-4.3042,-4.3042,-4.3043,-4.3043,0,-4.2104,-4.213,-4.2194,-4.2267,-4.232,-4.2381,-4.2443,-4.2474,-4.2542,-4.2592,-4.2667,-4.2716,-4.2814,-4.2888,-4.2968,-4.3013,-4.3039,-4.3047,-4.3057,-4.3042,-4.3019,-4.3031,-4.2969,-4.3044,-4.3044,-4.3044,-4.3044,-4.3044,-4.2125,-4.2168,-4.224,-4.231,-4.2362,-4.2419,-4.2467,-4.2519,-4.2582,-4.2666,-4.2696,-4.2773,-4.2845,-4.2955,-4.3,-4.3062,-4.3064,-4.3079,-4.3083,-4.3086,-4.3083,-4.301,-4.3077,-4.3077,-4.3077,-4.3077,-4.3077,0,-4.2169,-4.2217,-4.2281,-4.2366,-4.2421,-4.2441,-4.2511,-4.2556,-4.2623,-4.2687,-4.2749,-4.2835,-4.2908,-4.2976,-4.3052,-4.3089,-4.3103,-4.3107,-4.3104,-4.3114,-4.3078,-4.306,-4.3094,-4.3094,-4.3094,-4.3094,-4.3094,-4.3094,-4.2197,-4.2271,-4.2306,-4.2407,-4.2455,-4.253,-4.2568,-4.2622,-4.2673,-4.2768,-4.2828,-4.2872,-4.2938,-4.302,-4.3088,-4.3106,-4.3132,-4.3133,-4.3154,-4.3119,-4.3116,-4.3114,-4.3097,-4.3138,-4.3138,-4.3184,-4.3185,-4.3185]},{"header":{"parameterUnit":"m.s-1","parameterCategory":1,"la1":30.2991,"la2":30.254,"lo1":-89.0895,"lo2":-89.0444,"dy":0.0017,"dx":0.0017,"nx":28,"ny":28,"refTime":"2025-04-05T03:00:00:Z","depth":0,"parameterNumber":3,"parameterNumberName":"V-component_of_WINDS"},"data":[0,0,0,0,0,0,0,0,0,0,0,0,0,0,0,0,0,0,0,0,0,0,0,0,0,0,0,0,0,0,0,0,0,0,0,0,0,0,0,0,0,0,0,0,0,0,0,0,0,0,0,0,0,0,0,0,0,0,5.1208,5.121,0,5.1335,5.1336,5.1338,5.1354,5.1353,5.1351,5.135,5.148,5.1485,5.149,0,0,0,0,0,0,0,0,0,0,0,0,0,5.0983,5.0987,5.1208,5.121,5.1211,5.1335,5.1336,5.1338,5.1354,5.1353,5.1351,5.135,5.1479,5.1484,5.149,0,0,0,0,0,0,0,0,0,0,0,0,0,5.1093,5.0989,5.1208,5.1234,5.1238,5.1334,5.1336,5.1339,5.1354,5.1353,5.1351,5.1349,5.1477,5.1484,5.1491,5.157,0,0,5.1512,5.1515,0,0,0,0,0,0,0,0,5.1086,5.1101,5.1229,5.1233,5.1237,5.1327,5.1305,5.1416,5.1355,5.131,5.135,5.1348,5.1431,5.1441,5.1469,5.1576,5.1581,5.1512,5.1517,5.152,5.1521,0,0,0,0,0,0,0,5.1079,5.1095,5.1258,5.1231,5.1236,5.1241,5.1254,5.1326,5.1379,5.1314,5.1315,5.133,5.1433,5.1462,5.1472,5.1583,5.1512,5.1518,5.1523,5.1525,5.1766,5.1768,0,0,0,0,0,0,5.1066,5.1089,5.1254,5.1262,5.1156,5.1246,5.1261,5.13,5.1378,5.1389,5.1332,5.133,5.1452,5.1464,5.1477,5.1578,5.1519,5.1526,5.153,5.1763,5.1766,5.1769,0,0,0,0,0,0,5.1061,5.1081,5.1249,5.1176,5.1198,5.1252,5.1295,5.1303,5.1333,5.1392,5.1402,5.1352,5.1451,5.1467,5.1548,5.1582,5.1529,5.1535,5.1761,5.1764,5.1767,5.1778,0,0,0,0,0,0,5.1055,5.1079,5.1108,5.1177,5.1202,5.1317,5.1297,5.1307,5.1345,5.1345,5.1414,5.1423,5.1451,5.1537,5.1554,5.1591,5.1541,5.1758,5.1762,5.1766,5.1774,5.1781,5.1787,0,0,0,0,0,5.1047,5.1106,5.111,5.113,5.124,5.1319,5.1333,5.1363,5.1347,5.1379,5.1417,5.1421,5.1575,5.1545,5.1565,5.1604,5.1756,5.1761,5.1766,5.1772,5.178,5.1786,0,0,0,0,0,0,5.1039,5.1115,5.112,5.1203,5.1254,5.1321,5.1361,5.137,5.1426,5.1424,5.1459,5.1474,5.1554,5.1587,5.1551,5.1687,5.1664,5.1674,5.1662,5.167,5.1676,5.1667,5.1546,0,0,0,0,0,5.1048,5.1104,5.1167,5.1234,5.126,5.1306,5.1341,5.136,5.1415,5.1437,5.1481,5.1534,5.1595,5.1634,5.1693,5.1779,5.1796,5.1816,5.1822,5.1827,5.1835,5.1886,5.1897,5.1785,5.1785,5.1785,0,0,5.1065,5.1113,5.1147,5.1234,5.1276,5.1336,5.1324,5.1387,5.1432,5.1446,5.1525,5.156,5.1622,5.1706,5.1746,5.1736,5.1869,5.1833,5.1836,5.1842,5.1892,5.1903,5.1912,5.1789,5.1788,5.1787,0,0,5.1127,5.1168,5.123,5.1273,5.1337,5.1368,5.1383,5.1449,5.1473,5.1553,5.1566,5.1621,5.1724,5.1769,5.1805,5.1888,5.1895,5.1906,5.1938,5.1987,5.1996,5.2004,5.2036,5.2047,5.1913,5.1913,5.1913,0,5.114,5.123,5.1261,5.1324,5.1364,5.138,5.1445,5.1485,5.1565,5.1592,5.158,5.1713,5.1755,5.1852,5.1873,5.1901,5.1921,5.1898,5.1992,5.2001,5.2009,5.204,5.2052,5.1914,5.1914,5.1914,5.1914,0,5.1245,5.1307,5.135,5.1428,5.1472,5.1535,5.1577,5.1618,5.1634,5.1667,5.175,5.1802,5.1873,5.1898,5.1913,5.1998,5.199,5.1985,5.1964,5.202,5.205,5.2062,5.1916,5.1916,5.1915,5.1915,0,0,5.1305,5.1402,5.1417,5.1454,5.1527,5.1577,5.1642,5.1712,5.1748,5.1803,5.1861,5.1949,5.1946,5.1987,5.2008,5.2051,5.2118,5.2041,5.2044,5.2056,5.2218,5.2223,5.2236,5.2122,5.2125,5.2127,5.2214,0,5.1378,5.1494,5.1525,5.1625,5.1685,5.1703,5.176,5.1812,5.1845,5.1901,5.1938,5.2001,5.199,5.2016,5.206,5.21,5.2151,5.2094,5.2178,5.2181,5.2164,5.2251,5.2256,5.2335,5.2225,5.2227,5.2229,0,5.1478,5.1536,5.1642,5.1711,5.1737,5.1788,5.1857,5.191,5.197,5.1992,5.2039,5.2057,5.2128,5.2102,5.2202,5.2163,5.2199,5.2224,5.2228,5.2238,5.2209,5.2266,5.2361,5.2374,5.2247,5.2245,5.2244,0,5.1514,5.162,5.1698,5.1728,5.181,5.1846,5.1881,5.194,5.1982,5.2042,5.207,5.2137,5.2175,5.2227,5.2264,5.2241,5.2361,5.2338,5.2383,5.2382,5.2408,5.2406,5.2512,5.2428,5.2428,5.2428,5.2428,0,5.1593,5.1658,5.1716,5.1764,5.1838,5.1873,5.1946,5.1982,5.2035,5.2092,5.2111,5.2164,5.2208,5.2267,5.2296,5.2376,5.2392,5.2413,5.242,5.2412,5.241,5.2438,5.2434,5.2431,5.243,5.243,5.2429,0,5.1647,5.1688,5.1774,5.1845,5.1864,5.1916,5.1977,5.2026,5.206,5.2132,5.2151,5.2205,5.2276,5.2318,5.2407,5.2427,5.2517,5.252,5.2496,5.25,5.2543,5.254,5.2672,5.2693,5.2593,5.2594,5.2594,0,5.1695,5.1746,5.1822,5.1862,5.1899,5.1961,5.2005,5.2043,5.2087,5.2161,5.2202,5.2274,5.2335,5.2448,5.2496,5.2566,5.2573,5.2615,5.2583,5.2575,5.2577,5.2574,5.2581,5.262,5.2621,5.2622,5.2622,0,5.1778,5.1796,5.1857,5.1927,5.1978,5.2034,5.209,5.2121,5.2169,5.2218,5.2292,5.2338,5.2431,5.2504,5.2579,5.2617,5.2629,5.2632,5.2647,5.264,5.2625,5.2637,5.2513,5.2629,5.2628,5.2628,5.2627,5.2627,5.1832,5.1879,5.1941,5.201,5.2056,5.2109,5.2159,5.22,5.2262,5.2341,5.2359,5.2438,5.25,5.2601,5.2641,5.2704,5.2697,5.2717,5.2723,5.2728,5.2731,5.2614,5.2718,5.2718,5.2717,5.2717,5.2717,0,5.1918,5.1959,5.2022,5.21,5.2155,5.2161,5.2224,5.227,5.2338,5.2395,5.2455,5.2542,5.2613,5.2668,5.2742,5.2782,5.2789,5.28,5.2799,5.2808,5.2732,5.2713,5.2793,5.2793,5.2793,5.2793,5.2793,5.2793,5.1969,5.205,5.2076,5.2182,5.2223,5.23,5.2336,5.2386,5.2432,5.2527,5.2587,5.2622,5.2679,5.2758,5.2825,5.2839,5.2867,5.2877,5.2893,5.2821,5.2813,5.2805,5.2788,5.2882,5.2882,5.2964,5.2965,5.2965]}]]